Estación Meteorológica Peña el Pijo (Robertgarden) [ 09/29/20 22:31:39 CEST ]

Fecha Hora Presion(HPa) Temp (°C) Humedad % Rocio (°C) Viento ( m/s) Direccion Lluvia 1Hora(mm) Lluvia 24H(mm) LLuvia Total(mm)
2020-Mar-02 01:09:05 1001.600 - - - - N     39.88
2020-Mar-02 02:09:43 1000.300 - - - - N     39.88
2020-Mar-02 03:39:05 998.100 - - - - N     39.88
2020-Mar-02 04:12:23 998.300 - - - - N     39.88
2020-Mar-02 05:09:31 998.300 - - - - N     39.88
2020-Mar-02 06:09:55 998.800 - - - - N     39.88
2020-Mar-02 07:09:06 998.400 - - - - N     39.88
2020-Mar-02 08:09:33 998.400 - - - - N     39.88
2020-Mar-02 09:09:13 999.100 - - - - N     39.88
2020-Mar-02 10:09:20 999.700 - - - - N     39.88
2020-Mar-02 11:09:22 1000.300 - - - - N     39.88
2020-Mar-02 12:09:40 1000.200 - - - - N     39.88
2020-Mar-02 13:09:01 1000.000 - - - - N     39.88
2020-Mar-02 14:09:04 999.400 - - - - N     39.88
2020-Mar-02 15:09:10 999.800 - - - - N     39.88
2020-Mar-02 16:09:11 1000.000 - - - - N     39.88
2020-Mar-02 17:09:04 1001.000 - - - - N     39.88
2020-Mar-02 18:09:18 1001.700 - - - - N     39.88
2020-Mar-02 19:09:24 1003.900 - - - - N     39.88
2020-Mar-02 20:09:12 1005.300 - - - - N     39.88
2020-Mar-02 21:09:19 1006.200 - - - - N     39.88
2020-Mar-02 22:09:20 1007.200 - - - - N     39.88
2020-Mar-02 23:09:09 1007.700 - - - - N     39.88

Temperatura Máxima:    Temperatura Mínima:
Presión Máxima:1007.700 Hpa    Presión Mínima:998.100 Hpa


Volver